This is the latest recevied weather packets stored in our database for station/object SP5MRF-1. If no packets are shown the sender has not sent any weather packets the latest 10 day(s).
| Time | Temp. | Humidity | Pressure | Rain* | Wind** | Luminosity | Snow |
|---|---|---|---|---|---|---|---|
| 1787403997 | 19.44° C | 57% | 1012.2 hPa | - | - | - | - |
| 1787403168 | 19.44° C | 57% | 1012.1 hPa | - | - | - | - |
| 1787403096 | 19.44° C | 57% | 1012.1 hPa | - | - | - | - |
| 1787402196 | 19.44° C | 57% | 1011.9 hPa | - | - | - | - |
| 1787401296 | 18.33° C | 58% | 1011.7 hPa | - | - | - | - |
| 1787400432 | 19.44° C | 57% | 1011.7 hPa | - | - | - | - |
| 1787400396 | 19.44° C | 57% | 1011.7 hPa | - | - | - | - |
| 1787399547 | 22.22° C | 54% | 1011.3 hPa | - | - | - | - |
| 1787399495 | 22.22° C | 54% | 1011.3 hPa | - | - | - | - |
| 1787398595 | 22.78° C | 53% | 1011 hPa | - | - | - | - |
| 1787396354 | 23.33° C | 70% | 1010.6 hPa | - | - | - | - |
| 1787395454 | 20° C | 70% | 1010.4 hPa | - | - | - | - |
| 1787394554 | 22.22° C | 70% | 1010.2 hPa | - | - | - | - |
| 1787393654 | 20° C | 70% | 1010 hPa | - | - | - | - |
| 1787392753 | 21.67° C | 70% | 1009.6 hPa | - | - | - | - |
| 1787391853 | 27.78° C | 71% | 1009.3 hPa | - | - | - | - |
| 1787390953 | 27.78° C | 71% | 1008.7 hPa | - | - | - | - |
| 1787390100 | 32.78° C | 71% | 1008.1 hPa | - | - | - | - |
| 1787390053 | 32.78° C | 71% | 1008.1 hPa | - | - | - | - |
| 1787389153 | 33.89° C | 71% | 1007.8 hPa | - | - | - | - |
| 1787388253 | 28.33° C | 71% | 1007.7 hPa | - | - | - | - |
| 1787387352 | 22.22° C | 70% | 1006.9 hPa | - | - | - | - |
| 1787386451 | 18.89° C | 70% | 1006.7 hPa | - | - | - | - |
| 1787385551 | 17.22° C | 70% | 1006.2 hPa | - | - | - | - |
| 1787384651 | 17.22° C | 70% | 1005.8 hPa | - | - | - | - |
* Rain since midnight (hover to see other rain measurements)
** Current wind speed in m/s (hover to see current wind gust speed)